Time,TemperatureF,DewpointF,PressureIn,WindDirection,WindDirectionDegrees,WindSpeedMPH,WindSpeedGustMPH,Humidity,HourlyPrecipIn,Conditions,Clouds,dailyrainin,SoftwareType,DateUTC
2013-07-22 00:00:00,67.7,66.8,30.02,NW,325,0.0,0.0,97,0.00,,,0.87,Wunderground v.1.15,2013-07-22 04:00:00,
2013-07-22 00:02:00,67.7,66.8,30.02,NW,325,0.0,0.0,97,0.00,,,0.87,Wunderground v.1.15,2013-07-22 04:02:00,
2013-07-22 00:04:00,67.7,66.8,30.02,NW,325,0.0,0.0,97,0.00,,,0.87,Wunderground v.1.15,2013-07-22 04:04:00,
2013-07-22 00:08:00,67.7,66.8,30.02,NW,325,0.0,0.0,97,0.00,,,0.87,Wunderground v.1.15,2013-07-22 04:08:00,
2013-07-22 00:14:00,67.8,66.9,30.02,NW,325,0.0,0.0,97,0.00,,,0.00,Wunderground v.1.15,2013-07-22 04:14:00,
2013-07-22 00:20:00,67.8,66.9,30.02,NW,325,0.0,0.0,97,0.00,,,0.00,Wunderground v.1.15,2013-07-22 04:20:00,
2013-07-22 00:24:00,67.7,66.8,30.02,NW,325,0.0,0.0,97,0.00,,,0.00,Wunderground v.1.15,2013-07-22 04:24:00,
2013-07-22 00:30:00,67.9,67.0,30.02,NW,325,0.0,0.0,97,0.00,,,0.00,Wunderground v.1.15,2013-07-22 04:30:00,
2013-07-22 00:34:00,68.0,67.1,30.01,NW,325,0.0,0.0,97,0.00,,,0.00,Wunderground v.1.15,2013-07-22 04:34:00,
2013-07-22 00:40:00,68.0,67.1,30.01,NW,325,0.0,0.0,97,0.00,,,0.00,Wunderground v.1.15,2013-07-22 04:40:00,
2013-07-22 00:46:00,68.0,67.1,30.01,NW,325,0.0,0.0,97,0.00,,,0.00,Wunderground v.1.15,2013-07-22 04:46:00,
2013-07-22 00:52:00,68.1,67.2,30.00,NW,325,0.0,0.0,97,0.00,,,0.00,Wunderground v.1.15,2013-07-22 04:52:00,
2013-07-22 00:58:00,67.9,67.0,30.00,NW,325,0.0,0.0,97,0.00,,,0.00,Wunderground v.1.15,2013-07-22 04:58:00,
2013-07-22 01:04:00,67.7,66.8,30.00,NW,325,0.0,0.0,97,0.00,,,0.00,Wunderground v.1.15,2013-07-22 05:04:00,
2013-07-22 01:10:00,67.7,66.8,30.00,NW,325,0.0,0.0,97,0.00,,,0.00,Wunderground v.1.15,2013-07-22 05:10:00,
2013-07-22 01:16:00,67.6,66.7,30.00,NW,325,0.0,0.0,97,0.00,,,0.00,Wunderground v.1.15,2013-07-22 05:16:00,
2013-07-22 01:22:00,67.4,66.5,29.99,NW,325,0.0,0.0,97,0.00,,,0.00,Wunderground v.1.15,2013-07-22 05:22:00,
2013-07-22 01:28:00,67.4,66.5,29.99,NW,325,0.0,1.0,97,0.00,,,0.00,Wunderground v.1.15,2013-07-22 05:28:00,
2013-07-22 01:34:00,67.4,66.5,29.98,NW,325,0.0,1.0,97,0.00,,,0.00,Wunderground v.1.15,2013-07-22 05:34:00,
2013-07-22 01:40:00,67.4,66.5,29.98,NW,325,0.0,0.0,97,0.00,,,0.00,Wunderground v.1.15,2013-07-22 05:40:00,
2013-07-22 01:46:00,67.4,66.5,29.98,NW,325,0.0,0.0,97,0.00,,,0.00,Wunderground v.1.15,2013-07-22 05:46:00,
2013-07-22 01:52:00,67.4,66.5,29.98,NW,325,0.0,1.0,97,0.00,,,0.00,Wunderground v.1.15,2013-07-22 05:52:00,
2013-07-22 01:58:00,67.4,66.5,29.97,NW,325,0.0,1.0,97,0.00,,,0.00,Wunderground v.1.15,2013-07-22 05:58:00,
2013-07-22 02:04:00,67.4,66.5,29.97,NW,325,0.0,0.0,97,0.00,,,0.00,Wunderground v.1.15,2013-07-22 06:04:00,
2013-07-22 02:10:00,67.4,66.5,29.97,NW,325,0.0,0.0,97,0.00,,,0.00,Wunderground v.1.15,2013-07-22 06:10:00,
2013-07-22 02:16:00,67.4,66.5,29.96,NW,325,0.0,2.0,97,0.00,,,0.00,Wunderground v.1.15,2013-07-22 06:16:00,
2013-07-22 02:22:00,67.4,66.5,29.97,NW,325,0.0,0.0,97,0.00,,,0.00,Wunderground v.1.15,2013-07-22 06:22:00,
2013-07-22 02:28:00,67.4,66.5,29.96,NW,325,0.0,0.0,97,0.00,,,0.00,Wunderground v.1.15,2013-07-22 06:28:00,
2013-07-22 02:34:00,67.4,66.5,29.96,NW,325,0.0,2.0,97,0.00,,,0.00,Wunderground v.1.15,2013-07-22 06:34:00,
2013-07-22 02:40:00,67.4,66.5,29.95,NW,325,0.0,0.0,97,0.00,,,0.00,Wunderground v.1.15,2013-07-22 06:40:00,
2013-07-22 02:46:00,67.4,66.5,29.95,NW,325,0.0,2.0,97,0.00,,,0.00,Wunderground v.1.15,2013-07-22 06:46:00,
2013-07-22 02:52:00,67.4,66.5,29.95,NW,325,0.0,4.0,97,0.00,,,0.00,Wunderground v.1.15,2013-07-22 06:52:00,
2013-07-22 02:58:00,67.3,66.4,29.95,NW,325,1.0,4.0,97,0.00,,,0.00,Wunderground v.1.15,2013-07-22 06:58:00,
2013-07-22 03:04:00,67.1,65.9,29.94,NW,325,0.0,4.0,96,0.00,,,0.00,Wunderground v.1.15,2013-07-22 07:04:00,
2013-07-22 03:10:00,67.0,65.8,29.94,NW,318,1.0,1.0,96,0.00,,,0.00,Wunderground v.1.15,2013-07-22 07:10:00,
2013-07-22 03:16:00,66.9,65.7,29.94,NW,317,0.0,1.0,96,0.00,,,0.00,Wunderground v.1.15,2013-07-22 07:16:00,
2013-07-22 03:22:00,66.9,65.7,29.94,NW,317,0.0,0.0,96,0.00,,,0.00,Wunderground v.1.15,2013-07-22 07:22:00,
2013-07-22 03:28:00,66.8,65.6,29.94,NW,316,0.0,1.0,96,0.00,,,0.00,Wunderground v.1.15,2013-07-22 07:28:00,
2013-07-22 03:34:00,66.8,65.6,29.93,NW,316,0.0,0.0,96,0.00,,,0.00,Wunderground v.1.15,2013-07-22 07:34:00,
2013-07-22 03:40:00,66.7,65.5,29.93,NW,313,1.0,1.0,96,0.00,,,0.00,Wunderground v.1.15,2013-07-22 07:40:00,
2013-07-22 03:46:00,66.7,65.5,29.93,NW,306,1.0,1.0,96,0.00,,,0.00,Wunderground v.1.15,2013-07-22 07:46:00,
2013-07-22 03:52:00,66.7,65.8,29.93,NW,306,0.0,0.0,97,0.00,,,0.00,Wunderground v.1.15,2013-07-22 07:52:00,
2013-07-22 03:58:00,66.7,65.8,29.93,WNW,297,1.0,1.0,97,0.00,,,0.00,Wunderground v.1.15,2013-07-22 07:58:00,
2013-07-22 04:04:00,66.7,65.8,29.93,WNW,290,0.0,1.0,97,0.00,,,0.00,Wunderground v.1.15,2013-07-22 08:04:00,
2013-07-22 04:10:00,66.8,65.9,29.93,WNW,284,0.0,1.0,97,0.00,,,0.00,Wunderground v.1.15,2013-07-22 08:10:00,
2013-07-22 04:16:00,66.7,65.5,29.93,NW,320,3.0,7.0,96,0.00,,,0.00,Wunderground v.1.15,2013-07-22 08:16:00,
2013-07-22 04:22:00,66.8,65.6,29.93,WNW,300,3.0,6.0,96,0.00,,,0.00,Wunderground v.1.15,2013-07-22 08:22:00,
2013-07-22 04:28:00,66.9,65.7,29.93,WNW,300,1.0,6.0,96,0.00,,,0.00,Wunderground v.1.15,2013-07-22 08:28:00,
2013-07-22 04:34:00,66.9,65.7,29.93,WNW,300,0.0,1.0,96,0.00,,,0.00,Wunderground v.1.15,2013-07-22 08:34:00,
2013-07-22 04:40:00,66.9,65.7,29.93,WNW,300,0.0,0.0,96,0.00,,,0.00,Wunderground v.1.15,2013-07-22 08:40:00,
2013-07-22 04:46:00,66.8,65.6,29.93,WNW,298,0.0,1.0,96,0.00,,,0.00,Wunderground v.1.15,2013-07-22 08:46:00,
2013-07-22 04:52:00,66.8,65.6,29.93,WNW,298,0.0,0.0,96,0.00,,,0.00,Wunderground v.1.15,2013-07-22 08:52:00,
2013-07-22 04:58:00,66.9,65.7,29.93,WNW,298,0.0,0.0,96,0.00,,,0.00,Wunderground v.1.15,2013-07-22 08:58:00,
2013-07-22 05:04:00,66.9,65.7,29.93,WNW,298,0.0,0.0,96,0.00,,,0.00,Wunderground v.1.15,2013-07-22 09:04:00,
2013-07-22 05:10:00,66.8,65.6,29.93,WNW,298,0.0,0.0,96,0.00,,,0.00,Wunderground v.1.15,2013-07-22 09:10:00,
2013-07-22 05:16:00,66.9,65.7,29.94,WNW,298,0.0,0.0,96,0.00,,,0.00,Wunderground v.1.15,2013-07-22 09:16:00,
2013-07-22 05:22:00,66.8,65.6,29.94,WNW,298,0.0,0.0,96,0.00,,,0.00,Wunderground v.1.15,2013-07-22 09:22:00,
2013-07-22 05:28:00,66.8,65.6,29.94,West,275,1.0,1.0,96,0.00,,,0.00,Wunderground v.1.15,2013-07-22 09:28:00,
2013-07-22 05:34:00,66.8,65.6,29.94,West,277,0.0,3.0,96,0.00,,,0.00,Wunderground v.1.15,2013-07-22 09:34:00,
2013-07-22 05:40:00,66.8,65.6,29.94,West,275,1.0,6.0,96,0.00,,,0.00,Wunderground v.1.15,2013-07-22 09:40:00,
2013-07-22 05:46:00,66.8,65.6,29.94,West,275,1.0,6.0,96,0.00,,,0.00,Wunderground v.1.15,2013-07-22 09:46:00,
2013-07-22 05:52:00,66.7,65.5,29.94,West,273,1.0,4.0,96,0.00,,,0.00,Wunderground v.1.15,2013-07-22 09:52:00,
2013-07-22 05:58:00,66.8,65.6,29.94,West,273,1.0,4.0,96,0.00,,,0.00,Wunderground v.1.15,2013-07-22 09:58:00,
2013-07-22 06:04:00,66.8,65.6,29.94,West,273,0.0,1.0,96,0.00,,,0.00,Wunderground v.1.15,2013-07-22 10:04:00,
2013-07-22 06:10:00,66.7,65.5,29.95,West,273,1.0,1.0,96,0.00,,,0.00,Wunderground v.1.15,2013-07-22 10:10:00,
2013-07-22 06:16:00,66.7,65.5,29.95,West,273,1.0,2.0,96,0.00,,,0.00,Wunderground v.1.15,2013-07-22 10:16:00,
2013-07-22 06:22:00,66.6,65.4,29.95,West,273,0.0,0.0,96,0.00,,,0.00,Wunderground v.1.15,2013-07-22 10:22:00,
2013-07-22 06:28:00,66.6,65.4,29.95,West,273,0.0,0.0,96,0.00,,,0.00,Wunderground v.1.15,2013-07-22 10:28:00,
2013-07-22 06:34:00,66.5,65.3,29.95,West,272,0.0,1.0,96,0.00,,,0.00,Wunderground v.1.15,2013-07-22 10:34:00,
2013-07-22 06:40:00,66.5,65.3,29.95,West,272,0.0,0.0,96,0.00,,,0.00,Wunderground v.1.15,2013-07-22 10:40:00,
2013-07-22 06:46:00,66.5,65.3,29.95,West,272,0.0,0.0,96,0.00,,,0.00,Wunderground v.1.15,2013-07-22 10:46:00,
2013-07-22 06:52:00,66.5,65.3,29.96,West,272,0.0,0.0,96,0.00,,,0.00,Wunderground v.1.15,2013-07-22 10:52:00,
2013-07-22 06:58:00,66.5,65.3,29.96,West,272,0.0,0.0,96,0.00,,,0.00,Wunderground v.1.15,2013-07-22 10:58:00,
2013-07-22 07:04:00,66.5,65.3,29.96,West,272,0.0,0.0,96,0.00,,,0.00,Wunderground v.1.15,2013-07-22 11:04:00,
2013-07-22 07:10:00,66.5,65.3,29.96,West,272,0.0,0.0,96,0.00,,,0.00,Wunderground v.1.15,2013-07-22 11:10:00,
2013-07-22 07:16:00,66.7,65.5,29.97,West,272,0.0,0.0,96,0.00,,,0.00,Wunderground v.1.15,2013-07-22 11:16:00,
2013-07-22 07:22:00,66.7,65.5,29.97,West,272,0.0,1.0,96,0.00,,,0.00,Wunderground v.1.15,2013-07-22 11:22:00,
2013-07-22 07:28:00,66.8,65.6,29.96,West,272,0.0,1.0,96,0.00,,,0.00,Wunderground v.1.15,2013-07-22 11:28:00,
2013-07-22 07:34:00,67.0,65.8,29.97,West,272,0.0,0.0,96,0.00,,,0.00,Wunderground v.1.15,2013-07-22 11:34:00,
2013-07-22 07:40:00,67.1,65.9,29.97,West,272,0.0,0.0,96,0.00,,,0.00,Wunderground v.1.15,2013-07-22 11:40:00,
2013-07-22 07:46:00,67.3,66.1,29.97,West,272,0.0,0.0,96,0.00,,,0.00,Wunderground v.1.15,2013-07-22 11:46:00,
2013-07-22 07:52:00,67.5,66.0,29.97,West,272,0.0,0.0,95,0.00,,,0.00,Wunderground v.1.15,2013-07-22 11:52:00,
2013-07-22 07:58:00,67.6,66.1,29.97,West,272,0.0,0.0,95,0.00,,,0.00,Wunderground v.1.15,2013-07-22 11:58:00,
2013-07-22 08:04:00,67.8,66.3,29.97,West,272,0.0,0.0,95,0.00,,,0.00,Wunderground v.1.15,2013-07-22 12:04:00,
2013-07-22 08:10:00,67.8,66.3,29.97,West,273,0.0,4.0,95,0.00,,,0.00,Wunderground v.1.15,2013-07-22 12:10:00,
2013-07-22 08:16:00,67.7,65.9,29.97,West,272,1.0,5.0,94,0.00,,,0.00,Wunderground v.1.15,2013-07-22 12:16:00,
2013-07-22 08:22:00,67.7,65.9,29.98,West,271,1.0,1.0,94,0.00,,,0.00,Wunderground v.1.15,2013-07-22 12:22:00,
2013-07-22 08:28:00,67.9,66.1,29.97,West,267,1.0,2.0,94,0.00,,,0.00,Wunderground v.1.15,2013-07-22 12:28:00,
2013-07-22 08:34:00,68.0,66.2,29.98,West,270,1.0,1.0,94,0.00,,,0.00,Wunderground v.1.15,2013-07-22 12:34:00,
2013-07-22 08:40:00,68.2,66.4,29.98,West,270,1.0,1.0,94,0.00,,,0.00,Wunderground v.1.15,2013-07-22 12:40:00,
2013-07-22 08:46:00,68.6,66.5,29.98,West,271,0.0,1.0,93,0.00,,,0.00,Wunderground v.1.15,2013-07-22 12:46:00,
2013-07-22 08:52:00,68.8,66.4,29.98,WNW,284,2.0,5.0,92,0.00,,,0.00,Wunderground v.1.15,2013-07-22 12:52:00,
2013-07-22 08:58:00,68.8,66.4,29.98,WNW,286,2.0,5.0,92,0.00,,,0.00,Wunderground v.1.15,2013-07-22 12:58:00,
2013-07-22 09:04:00,69.2,66.8,29.98,WNW,284,1.0,2.0,92,0.00,,,0.00,Wunderground v.1.15,2013-07-22 13:04:00,
2013-07-22 09:10:00,69.6,66.9,29.98,West,281,1.0,4.0,91,0.00,,,0.00,Wunderground v.1.15,2013-07-22 13:10:00,
2013-07-22 09:16:00,69.7,67.0,29.99,WNW,282,1.0,4.0,91,0.00,,,0.00,Wunderground v.1.15,2013-07-22 13:16:00,
2013-07-22 09:22:00,69.9,67.2,29.99,West,281,1.0,1.0,91,0.00,,,0.00,Wunderground v.1.15,2013-07-22 13:22:00,
2013-07-22 09:28:00,70.1,67.0,29.99,West,279,0.0,5.0,90,0.00,,,0.00,Wunderground v.1.15,2013-07-22 13:28:00,
2013-07-22 09:34:00,70.0,66.9,29.99,West,279,0.0,0.0,90,0.00,,,0.00,Wunderground v.1.15,2013-07-22 13:34:00,
2013-07-22 09:40:00,69.9,66.8,29.99,West,271,1.0,1.0,90,0.00,,,0.00,Wunderground v.1.15,2013-07-22 13:40:00,
2013-07-22 09:46:00,70.1,67.0,29.99,West,279,2.0,4.0,90,0.00,,,0.00,Wunderground v.1.15,2013-07-22 13:46:00,
2013-07-22 09:52:00,70.4,67.0,29.99,WNW,284,2.0,4.0,89,0.00,,,0.00,Wunderground v.1.15,2013-07-22 13:52:00,
2013-07-22 09:58:00,70.5,67.1,29.99,West,270,2.0,7.0,89,0.00,,,0.00,Wunderground v.1.15,2013-07-22 13:58:00,
2013-07-22 10:04:00,70.6,66.9,29.99,West,271,2.0,7.0,88,0.00,,,0.00,Wunderground v.1.15,2013-07-22 14:04:00,
2013-07-22 10:10:00,71.0,67.6,29.99,West,271,1.0,1.0,89,0.00,,,0.00,Wunderground v.1.15,2013-07-22 14:10:00,
2013-07-22 10:16:00,71.9,67.5,29.99,West,274,2.0,6.0,86,0.00,,,0.00,Wunderground v.1.15,2013-07-22 14:16:00,
2013-07-22 10:22:00,72.4,68.0,29.98,West,275,2.0,2.0,86,0.00,,,0.00,Wunderground v.1.15,2013-07-22 14:22:00,
2013-07-22 10:28:00,72.9,67.8,29.98,West,275,1.0,2.0,84,0.00,,,0.00,Wunderground v.1.15,2013-07-22 14:28:00,
2013-07-22 10:34:00,73.2,68.4,29.98,West,275,1.0,3.0,85,0.00,,,0.00,Wunderground v.1.15,2013-07-22 14:34:00,
2013-07-22 10:40:00,73.9,68.8,29.98,WNW,284,1.0,1.0,84,0.00,,,0.00,Wunderground v.1.15,2013-07-22 14:40:00,
2013-07-22 10:46:00,74.0,68.5,29.98,WNW,286,2.0,2.0,83,0.00,,,0.00,Wunderground v.1.15,2013-07-22 14:46:00,
2013-07-22 10:52:00,74.2,68.3,29.98,WNW,287,1.0,1.0,82,0.00,,,0.00,Wunderground v.1.15,2013-07-22 14:52:00,
2013-07-22 10:58:00,75.0,69.8,29.98,WNW,287,1.0,1.0,84,0.00,,,0.00,Wunderground v.1.15,2013-07-22 14:58:00,
2013-07-22 11:04:00,76.1,70.6,29.98,NW,325,1.0,5.0,83,0.00,,,0.00,Wunderground v.1.15,2013-07-22 15:04:00,
2013-07-22 11:10:00,77.1,70.1,29.98,SW,219,1.0,1.0,79,0.00,,,0.00,Wunderground v.1.15,2013-07-22 15:10:00,
2013-07-22 11:16:00,77.4,68.5,29.98,SW,219,0.0,1.0,74,0.00,,,0.00,Wunderground v.1.15,2013-07-22 15:16:00,
2013-07-22 11:22:00,77.8,68.8,29.98,SW,219,0.0,0.0,74,0.00,,,0.00,Wunderground v.1.15,2013-07-22 15:22:00,
2013-07-22 11:28:00,78.3,70.1,29.97,SW,218,0.0,0.0,76,0.00,,,0.00,Wunderground v.1.15,2013-07-22 15:28:00,
2013-07-22 11:34:00,79.0,69.2,29.98,SW,218,0.0,0.0,72,0.00,,,0.00,Wunderground v.1.15,2013-07-22 15:34:00,
2013-07-22 11:40:00,79.8,70.0,29.97,SW,217,0.0,2.0,72,0.00,,,0.00,Wunderground v.1.15,2013-07-22 15:40:00,
2013-07-22 11:46:00,79.9,71.3,29.98,SW,217,0.0,2.0,75,0.00,,,0.00,Wunderground v.1.15,2013-07-22 15:46:00,
2013-07-22 11:52:00,80.3,69.6,29.97,SW,217,0.0,0.0,70,0.00,,,0.00,Wunderground v.1.15,2013-07-22 15:52:00,
2013-07-22 11:58:00,81.4,70.7,29.97,SW,216,0.0,0.0,70,0.00,,,0.00,Wunderground v.1.15,2013-07-22 15:58:00,
2013-07-22 12:04:00,82.2,70.6,29.97,SW,216,0.0,1.0,68,0.00,,,0.00,Wunderground v.1.15,2013-07-22 16:04:00,
2013-07-22 12:10:00,81.4,69.8,29.97,SSW,200,1.0,5.0,68,0.00,,,0.00,Wunderground v.1.15,2013-07-22 16:10:00,
2013-07-22 12:16:00,80.3,68.8,29.96,South,188,1.0,5.0,68,0.00,,,0.00,Wunderground v.1.15,2013-07-22 16:16:00,
2013-07-22 12:22:00,80.1,68.6,29.96,South,186,1.0,1.0,68,0.00,,,0.00,Wunderground v.1.15,2013-07-22 16:22:00,
2013-07-22 12:28:00,80.7,67.4,29.96,South,191,1.0,3.0,64,0.00,,,0.00,Wunderground v.1.15,2013-07-22 16:28:00,
2013-07-22 12:34:00,81.2,67.9,29.96,SSE,164,1.0,2.0,64,0.00,,,0.00,Wunderground v.1.15,2013-07-22 16:34:00,
2013-07-22 12:40:00,80.9,68.0,29.96,SSE,164,1.0,1.0,65,0.00,,,0.00,Wunderground v.1.15,2013-07-22 16:40:00,
2013-07-22 12:46:00,81.0,69.0,29.95,SSE,164,0.0,4.0,67,0.00,,,0.00,Wunderground v.1.15,2013-07-22 16:46:00,
2013-07-22 12:52:00,81.0,69.4,29.95,SSE,164,1.0,2.0,68,0.00,,,0.00,Wunderground v.1.15,2013-07-22 16:52:00,
2013-07-22 12:58:00,80.2,68.2,29.95,SSE,163,2.0,6.0,67,0.00,,,0.00,Wunderground v.1.15,2013-07-22 16:58:00,
2013-07-22 13:04:00,80.2,69.1,29.95,SSE,161,2.0,5.0,69,0.00,,,0.00,Wunderground v.1.15,2013-07-22 17:04:00,
2013-07-22 13:10:00,80.6,69.5,29.94,SSE,161,1.0,3.0,69,0.00,,,0.00,Wunderground v.1.15,2013-07-22 17:10:00,
2013-07-22 13:16:00,80.7,70.4,29.94,SSE,156,3.0,8.0,71,0.00,,,0.00,Wunderground v.1.15,2013-07-22 17:16:00,
2013-07-22 13:22:00,80.1,69.8,29.94,ESE,113,3.0,7.0,71,0.00,,,0.00,Wunderground v.1.15,2013-07-22 17:22:00,
2013-07-22 13:28:00,79.4,70.4,29.95,NW,308,3.0,8.0,74,0.00,,,0.01,Wunderground v.1.15,2013-07-22 17:28:00,
2013-07-22 13:34:00,75.2,68.6,29.94,NNW,348,5.0,7.0,80,0.46,,,0.06,Wunderground v.1.15,2013-07-22 17:34:00,
2013-07-22 13:40:00,72.8,68.4,29.94,NNE,21,4.0,4.0,86,0.13,,,0.07,Wunderground v.1.15,2013-07-22 17:40:00,
2013-07-22 13:46:00,72.1,69.0,29.93,NNE,22,2.0,4.0,90,0.69,,,0.13,Wunderground v.1.15,2013-07-22 17:46:00,
2013-07-22 13:52:00,72.1,69.0,29.94,South,169,1.0,5.0,90,0.12,,,0.14,Wunderground v.1.15,2013-07-22 17:52:00,
2013-07-22 13:58:00,72.1,69.3,29.94,SE,134,2.0,5.0,91,0.05,,,0.14,Wunderground v.1.15,2013-07-22 17:58:00,
2013-07-22 14:04:00,72.1,69.6,29.93,SE,126,4.0,4.0,92,0.00,,,0.14,Wunderground v.1.15,2013-07-22 18:04:00,
2013-07-22 14:10:00,72.7,69.6,29.93,SE,140,5.0,6.0,90,0.00,,,0.14,Wunderground v.1.15,2013-07-22 18:10:00,
2013-07-22 14:16:00,73.0,69.6,29.92,SE,137,4.0,6.0,89,0.00,,,0.14,Wunderground v.1.15,2013-07-22 18:16:00,
2013-07-22 14:22:00,73.6,70.5,29.92,SE,136,1.0,2.0,90,0.00,,,0.14,Wunderground v.1.15,2013-07-22 18:22:00,
2013-07-22 14:30:00,73.9,70.5,29.92,SE,136,1.0,1.0,89,0.00,,,0.14,Wunderground v.1.15,2013-07-22 18:30:00,
2013-07-22 14:36:00,74.5,70.7,29.92,SE,136,1.0,3.0,88,0.00,,,0.14,Wunderground v.1.15,2013-07-22 18:36:00,
2013-07-22 14:42:00,75.0,71.2,29.92,SE,136,1.0,3.0,88,0.00,,,0.14,Wunderground v.1.15,2013-07-22 18:42:00,
2013-07-22 14:50:00,76.0,71.8,29.91,SE,128,1.0,1.0,87,0.00,,,0.14,Wunderground v.1.15,2013-07-22 18:50:00,
2013-07-22 14:56:00,76.4,71.6,29.91,ESE,102,3.0,9.0,85,0.00,,,0.14,Wunderground v.1.15,2013-07-22 18:56:00,
2013-07-22 15:02:00,76.9,71.3,29.91,ESE,119,5.0,7.0,83,0.00,,,0.14,Wunderground v.1.15,2013-07-22 19:02:00,
2013-07-22 15:08:00,76.9,71.0,29.91,SE,138,5.0,9.0,82,0.00,,,0.14,Wunderground v.1.15,2013-07-22 19:08:00,
2013-07-22 15:14:00,76.7,71.1,29.91,NNW,338,3.0,9.0,83,0.00,,,0.14,Wunderground v.1.15,2013-07-22 19:14:00,
2013-07-22 15:20:00,75.7,70.5,29.90,NE,45,5.0,10.0,84,0.00,,,0.14,Wunderground v.1.15,2013-07-22 19:20:00,
2013-07-22 15:30:00,75.7,70.9,29.90,ENE,63,4.0,4.0,85,0.00,,,0.14,Wunderground v.1.15,2013-07-22 19:30:00,
2013-07-22 15:36:00,76.4,71.2,29.89,ENE,63,1.0,4.0,84,0.00,,,0.14,Wunderground v.1.15,2013-07-22 19:36:00,
2013-07-22 15:42:00,77.4,71.5,29.88,East,84,1.0,2.0,82,0.00,,,0.14,Wunderground v.1.15,2013-07-22 19:42:00,
2013-07-22 15:50:00,77.9,71.2,29.88,East,83,1.0,2.0,80,0.00,,,0.14,Wunderground v.1.15,2013-07-22 19:50:00,
2013-07-22 15:56:00,78.3,71.6,29.88,SSE,164,1.0,4.0,80,0.00,,,0.14,Wunderground v.1.15,2013-07-22 19:56:00,
2013-07-22 16:02:00,78.7,70.9,29.88,SSE,165,1.0,1.0,77,0.00,,,0.14,Wunderground v.1.15,2013-07-22 20:02:00,
2013-07-22 16:08:00,80.2,71.2,29.88,SSW,210,2.0,7.0,74,0.00,,,0.14,Wunderground v.1.15,2013-07-22 20:08:00,
2013-07-22 16:18:00,81.0,71.5,29.87,SSE,163,6.0,7.0,73,0.00,,,0.14,Wunderground v.1.15,2013-07-22 20:18:00,
2013-07-22 16:20:00,81.3,72.2,29.87,SSE,163,4.0,4.0,74,0.00,,,0.14,Wunderground v.1.15,2013-07-22 20:20:00,
2013-07-22 16:22:00,81.7,72.2,29.87,South,184,3.0,8.0,73,0.00,,,0.14,Wunderground v.1.15,2013-07-22 20:22:00,
2013-07-22 16:24:00,82.0,71.2,29.87,South,173,2.0,9.0,70,0.00,,,0.14,Wunderground v.1.15,2013-07-22 20:24:00,
2013-07-22 16:30:00,81.5,70.8,29.87,South,175,4.0,4.0,70,0.00,,,0.14,Wunderground v.1.15,2013-07-22 20:30:00,
2013-07-22 16:36:00,81.5,71.2,29.87,South,188,4.0,9.0,71,0.00,,,0.14,Wunderground v.1.15,2013-07-22 20:36:00,
2013-07-22 16:42:00,82.3,71.1,29.87,South,177,2.0,3.0,69,0.00,,,0.14,Wunderground v.1.15,2013-07-22 20:42:00,
2013-07-22 16:46:00,82.3,71.1,29.86,South,185,2.0,12.0,69,0.00,,,0.14,Wunderground v.1.15,2013-07-22 20:46:00,
2013-07-22 16:52:00,81.6,70.9,29.86,South,175,5.0,8.0,70,0.00,,,0.14,Wunderground v.1.15,2013-07-22 20:52:00,
2013-07-22 16:54:00,81.6,71.3,29.86,South,186,6.0,8.0,71,0.00,,,0.14,Wunderground v.1.15,2013-07-22 20:54:00,
2013-07-22 17:00:00,82.2,70.6,29.87,SSW,193,4.0,4.0,68,0.00,,,0.14,Wunderground v.1.15,2013-07-22 21:00:00,
2013-07-22 17:06:00,82.3,71.5,29.86,South,179,2.0,7.0,70,0.00,,,0.14,Wunderground v.1.15,2013-07-22 21:06:00,
2013-07-22 17:12:00,81.3,71.0,29.86,South,178,3.0,5.0,71,0.00,,,0.14,Wunderground v.1.15,2013-07-22 21:12:00,
2013-07-22 17:18:00,80.8,70.5,29.86,South,179,4.0,9.0,71,0.00,,,0.14,Wunderground v.1.15,2013-07-22 21:18:00,
2013-07-22 17:24:00,80.4,70.9,29.86,South,177,4.0,7.0,73,0.00,,,0.14,Wunderground v.1.15,2013-07-22 21:24:00,
2013-07-22 17:30:00,80.1,70.3,29.86,SSE,167,5.0,10.0,72,0.00,,,0.14,Wunderground v.1.15,2013-07-22 21:30:00,
2013-07-22 17:36:00,80.2,70.4,29.86,South,171,6.0,10.0,72,0.00,,,0.14,Wunderground v.1.15,2013-07-22 21:36:00,
2013-07-22 17:42:00,80.0,70.6,29.86,South,175,4.0,5.0,73,0.00,,,0.14,Wunderground v.1.15,2013-07-22 21:42:00,
2013-07-22 17:48:00,79.4,70.4,29.86,South,175,6.0,7.0,74,0.00,,,0.14,Wunderground v.1.15,2013-07-22 21:48:00,
2013-07-22 17:54:00,79.6,70.2,29.85,South,184,4.0,8.0,73,0.00,,,0.14,Wunderground v.1.15,2013-07-22 21:54:00,
2013-07-22 18:00:00,80.0,71.0,29.85,South,184,2.0,2.0,74,0.00,,,0.14,Wunderground v.1.15,2013-07-22 22:00:00,
2013-07-22 18:06:00,80.2,70.8,29.85,South,182,2.0,9.0,73,0.00,,,0.14,Wunderground v.1.15,2013-07-22 22:06:00,
2013-07-22 18:12:00,79.9,70.9,29.85,WSW,237,3.0,6.0,74,0.00,,,0.14,Wunderground v.1.15,2013-07-22 22:12:00,
2013-07-22 18:18:00,79.8,70.4,29.85,South,179,2.0,6.0,73,0.00,,,0.14,Wunderground v.1.15,2013-07-22 22:18:00,
2013-07-22 18:24:00,79.3,70.3,29.85,South,182,3.0,8.0,74,0.00,,,0.14,Wunderground v.1.15,2013-07-22 22:24:00,
2013-07-22 18:30:00,78.9,69.9,29.85,SSW,192,5.0,5.0,74,0.00,,,0.14,Wunderground v.1.15,2013-07-22 22:30:00,
2013-07-22 18:36:00,78.5,69.5,29.86,South,181,6.0,6.0,74,0.00,,,0.14,Wunderground v.1.15,2013-07-22 22:36:00,
2013-07-22 18:42:00,78.5,69.9,29.86,SW,219,4.0,9.0,75,0.00,,,0.14,Wunderground v.1.15,2013-07-22 22:42:00,
2013-07-22 18:48:00,78.4,69.4,29.86,South,177,3.0,9.0,74,0.00,,,0.14,Wunderground v.1.15,2013-07-22 22:48:00,
2013-07-22 18:54:00,78.2,69.6,29.85,South,169,4.0,7.0,75,0.00,,,0.14,Wunderground v.1.15,2013-07-22 22:54:00,
2013-07-22 19:00:00,77.6,69.4,29.85,SSW,207,5.0,5.0,76,0.00,,,0.14,Wunderground v.1.15,2013-07-22 23:00:00,
2013-07-22 19:06:00,77.3,69.1,29.86,South,173,3.0,5.0,76,0.00,,,0.14,Wunderground v.1.15,2013-07-22 23:06:00,
2013-07-22 19:12:00,77.2,69.8,29.85,SSE,159,4.0,6.0,78,0.00,,,0.14,Wunderground v.1.15,2013-07-22 23:12:00,
2013-07-22 19:18:00,77.1,69.7,29.85,SSE,162,5.0,12.0,78,0.00,,,0.14,Wunderground v.1.15,2013-07-22 23:18:00,
2013-07-22 19:24:00,77.1,70.1,29.85,South,187,4.0,5.0,79,0.00,,,0.14,Wunderground v.1.15,2013-07-22 23:24:00,
2013-07-22 19:30:00,77.2,69.8,29.85,SSE,165,3.0,3.0,78,0.00,,,0.14,Wunderground v.1.15,2013-07-22 23:30:00,
2013-07-22 19:36:00,77.2,69.8,29.85,South,181,4.0,8.0,78,0.00,,,0.14,Wunderground v.1.15,2013-07-22 23:36:00,
2013-07-22 19:42:00,77.0,69.6,29.85,SSE,168,5.0,5.0,78,0.00,,,0.14,Wunderground v.1.15,2013-07-22 23:42:00,
2013-07-22 19:48:00,76.9,69.5,29.85,South,186,3.0,5.0,78,0.00,,,0.14,Wunderground v.1.15,2013-07-22 23:48:00,
2013-07-22 19:54:00,76.5,69.1,29.85,South,178,3.0,7.0,78,0.00,,,0.14,Wunderground v.1.15,2013-07-22 23:54:00,
2013-07-22 20:00:00,76.0,69.0,29.85,South,180,4.0,4.0,79,0.00,,,0.14,Wunderground v.1.15,2013-07-23 00:00:00,
2013-07-22 20:06:00,75.7,69.1,29.85,South,178,3.0,5.0,80,0.00,,,0.14,Wunderground v.1.15,2013-07-23 00:06:00,
2013-07-22 20:12:00,75.5,69.3,29.86,South,191,1.0,5.0,81,0.00,,,0.14,Wunderground v.1.15,2013-07-23 00:12:00,
2013-07-22 20:18:00,75.3,69.1,29.86,SW,222,3.0,6.0,81,0.00,,,0.14,Wunderground v.1.15,2013-07-23 00:18:00,
2013-07-22 20:24:00,75.3,69.1,29.86,South,173,3.0,5.0,81,0.00,,,0.14,Wunderground v.1.15,2013-07-23 00:24:00,
2013-07-22 20:30:00,75.2,69.3,29.86,SSE,167,2.0,2.0,82,0.00,,,0.14,Wunderground v.1.15,2013-07-23 00:30:00,
2013-07-22 20:36:00,75.0,69.1,29.86,SSE,167,2.0,4.0,82,0.00,,,0.14,Wunderground v.1.15,2013-07-23 00:36:00,
2013-07-22 20:42:00,74.7,68.8,29.86,South,178,3.0,7.0,82,0.00,,,0.14,Wunderground v.1.15,2013-07-23 00:42:00,
2013-07-22 20:48:00,74.5,68.6,29.86,SSE,161,2.0,7.0,82,0.00,,,0.14,Wunderground v.1.15,2013-07-23 00:48:00,
2013-07-22 20:54:00,74.1,68.6,29.85,SSE,163,1.0,4.0,83,0.00,,,0.14,Wunderground v.1.15,2013-07-23 00:54:00,
2013-07-22 21:00:00,73.8,68.7,29.86,SSE,163,1.0,1.0,84,0.00,,,0.14,Wunderground v.1.15,2013-07-23 01:00:00,
2013-07-22 21:06:00,73.6,68.8,29.86,SSE,163,0.0,1.0,85,0.00,,,0.14,Wunderground v.1.15,2013-07-23 01:06:00,
2013-07-22 21:12:00,73.5,68.7,29.86,SSE,163,0.0,0.0,85,0.00,,,0.14,Wunderground v.1.15,2013-07-23 01:12:00,
2013-07-22 21:18:00,73.5,68.7,29.86,SSE,163,0.0,0.0,85,0.00,,,0.14,Wunderground v.1.15,2013-07-23 01:18:00,
2013-07-22 21:24:00,73.5,68.7,29.86,SSE,163,0.0,0.0,85,0.00,,,0.14,Wunderground v.1.15,2013-07-23 01:24:00,
2013-07-22 21:30:00,73.5,68.4,29.87,SSE,165,0.0,0.0,84,0.00,,,0.14,Wunderground v.1.15,2013-07-23 01:30:00,
2013-07-22 21:36:00,73.5,68.7,29.87,WSW,243,0.0,1.0,85,0.00,,,0.14,Wunderground v.1.15,2013-07-23 01:36:00,
2013-07-22 21:42:00,73.4,69.3,29.87,WSW,242,1.0,1.0,87,0.00,,,0.15,Wunderground v.1.15,2013-07-23 01:42:00,
2013-07-22 21:48:00,72.8,69.0,29.88,WSW,257,1.0,5.0,88,0.20,,,0.17,Wunderground v.1.15,2013-07-23 01:48:00,
2013-07-22 21:54:00,72.1,69.0,29.87,WSW,257,1.0,2.0,90,0.51,,,0.23,Wunderground v.1.15,2013-07-23 01:54:00,
2013-07-22 22:00:00,71.4,69.0,29.88,WSW,258,0.0,0.0,92,0.27,,,0.26,Wunderground v.1.15,2013-07-23 02:00:00,
2013-07-22 22:06:00,71.1,68.7,29.89,WSW,257,0.0,0.0,92,0.08,,,0.27,Wunderground v.1.15,2013-07-23 02:06:00,
2013-07-22 22:12:00,70.8,68.7,29.88,WSW,257,0.0,0.0,93,0.08,,,0.27,Wunderground v.1.15,2013-07-23 02:12:00,
2013-07-22 22:18:00,70.6,68.5,29.88,WSW,257,0.0,0.0,93,0.05,,,0.27,Wunderground v.1.15,2013-07-23 02:18:00,
2013-07-22 22:24:00,70.4,68.3,29.88,WSW,257,0.0,0.0,93,0.00,,,0.27,Wunderground v.1.15,2013-07-23 02:24:00,
2013-07-22 22:30:00,70.3,68.2,29.88,WSW,257,0.0,0.0,93,0.00,,,0.27,Wunderground v.1.15,2013-07-23 02:30:00,
2013-07-22 22:36:00,70.2,68.1,29.88,WSW,257,0.0,0.0,93,0.00,,,0.27,Wunderground v.1.15,2013-07-23 02:36:00,
2013-07-22 22:42:00,70.2,68.1,29.88,WSW,257,0.0,0.0,93,0.00,,,0.27,Wunderground v.1.15,2013-07-23 02:42:00,
2013-07-22 22:48:00,70.2,67.8,29.88,West,259,1.0,1.0,92,0.00,,,0.27,Wunderground v.1.15,2013-07-23 02:48:00,
2013-07-22 22:54:00,70.1,67.7,29.89,West,259,0.0,1.0,92,0.00,,,0.27,Wunderground v.1.15,2013-07-23 02:54:00,
2013-07-22 23:00:00,69.8,67.4,29.89,West,259,0.0,0.0,92,0.00,,,0.27,Wunderground v.1.15,2013-07-23 03:00:00,
2013-07-22 23:06:00,69.6,67.5,29.89,West,259,0.0,3.0,93,0.00,,,0.27,Wunderground v.1.15,2013-07-23 03:06:00,
2013-07-22 23:12:00,69.5,67.7,29.89,West,259,0.0,1.0,94,0.00,,,0.27,Wunderground v.1.15,2013-07-23 03:12:00,
2013-07-22 23:18:00,69.4,67.6,29.89,West,259,0.0,1.0,94,0.00,,,0.27,Wunderground v.1.15,2013-07-23 03:18:00,
2013-07-22 23:24:00,69.4,67.6,29.89,West,259,0.0,0.0,94,0.00,,,0.27,Wunderground v.1.15,2013-07-23 03:24:00,
2013-07-22 23:30:00,69.4,67.6,29.89,West,259,0.0,0.0,94,0.00,,,0.27,Wunderground v.1.15,2013-07-23 03:30:00,
2013-07-22 23:36:00,69.3,67.5,29.89,West,259,0.0,0.0,94,0.00,,,0.27,Wunderground v.1.15,2013-07-23 03:36:00,
2013-07-22 23:42:00,69.2,67.4,29.89,West,259,0.0,0.0,94,0.00,,,0.27,Wunderground v.1.15,2013-07-23 03:42:00,
2013-07-22 23:48:00,68.9,67.1,29.89,West,259,0.0,0.0,94,0.00,,,0.27,Wunderground v.1.15,2013-07-23 03:48:00,
2013-07-22 23:54:00,68.6,66.8,29.89,West,259,0.0,0.0,94,0.00,,,0.27,Wunderground v.1.15,2013-07-23 03:54:00,